Temp_Advection
nan nan nan nan nan nan nan nan nan nan nan nan nan nan nan nan nan nan nan nan nan nan nan nan nan nan nan nan nan nan nan nan nan nan nan nan nan nan nan nan nan nan nan nan nan nan nan nan nan
nan 0 -0 -0 -0 0 -0 -0 -0 -0 -0 0 -0 -0 -0 -0 -0 -0 0 -0 1 0 0 0 0 0 0 0 0 0 0 0 0 0 0 0 -0 -0 -0 -1 -0 0 0 0 0 -0 -0 -0 nan
nan 0 -0 -1 0 -0 -0 -0 -0 0 0 -0 -0 -0 -0 -0 -0 0 -0 -0 0 0 0 0 0 0 0 0 0 0 0 0 0 0 0 0 0 -0 -0 -0 -0 -0 -0 0 0 0 -0 -0 nan
nan -0 -1 -0 -0 -0 -0 -0 -0 0 -0 -1 -0 -0 0 -0 0 0 0 0 -0 0 0 0 1 1 1 0 0 -0 0 1 0 0 0 0 0 0 -0 -0 -0 -0 -0 -0 -0 -0 -0 -0 nan
nan -0 -0 0 -0 -0 -0 0 -0 0 0 0 -0 -0 -0 0 0 -0 0 0 0 0 0 0 1 1 1 0 0 -0 -0 0 0 0 0 0 0 0 0 -0 -0 0 0 -0 -0 -0 -0 -0 nan
nan -0 -0 -0 -0 -0 -0 -0 0 0 -0 -0 -0 -0 -0 0 0 0 0 0 0 0 0 1 0 1 1 1 0 0 0 0 0 -0 0 0 0 0 0 -0 -0 -0 -0 -0 -0 -0 -0 -0 nan
nan -0 -0 -0 -0 -0 -0 0 -0 -0 -0 -0 -0 -0 0 0 0 0 0 0 0 0 0 0 1 2 1 1 0 0 -0 0 0 -0 0 0 0 0 0 0 0 -0 -0 -0 -0 -0 -0 -0 nan
nan -0 0 -0 -0 -0 -0 -0 0 -0 0 0 -0 -0 -0 0 0 0 0 0 0 1 1 1 -0 1 2 1 1 0 0 0 0 0 0 0 0 0 0 0 0 0 -0 -0 -0 -0 -0 -0 nan
nan -0 -0 -0 -0 0 0 -0 -0 -0 -0 -0 -0 0 0 0 0 0 1 1 0 0 1 1 -0 1 1 1 1 0 0 -0 0 0 0 0 0 0 0 0 0 -0 -0 -0 -0 -0 -0 -0 nan
nan -0 -1 -0 -0 0 0 0 -0 -0 -0 -0 0 0 1 0 1 0 0 1 0 -0 -0 0 0 0 1 1 1 0 0 -0 0 0 0 0 -0 0 0 0 0 0 -0 -0 -0 -0 -0 -0 nan
nan -0 -1 -1 0 0 -0 0 0 -0 -0 -1 -0 0 0 0 1 0 0 0 0 0 -1 -0 0 -0 -0 0 -0 -0 0 0 0 0 0 0 0 0 0 0 0 0 0 -0 -0 -0 -0 -0 nan
nan -0 -0 -0 0 -0 -0 0 -0 0 -0 -0 -0 0 0 -0 0 0 -0 -0 0 1 1 -0 0 1 -0 -1 -0 0 0 1 0 0 0 0 0 0 0 0 0 0 0 0 0 -0 -0 -0 nan
nan -0 -0 0 0 -0 -0 -0 -0 -0 0 1 -0 0 -0 -0 -0 0 -0 -0 -1 -1 0 0 -1 -0 -0 -0 0 0 0 0 0 0 0 0 0 0 0 0 0 0 0 0 0 0 -0 -0 nan
nan 0 -0 0 0 -0 -0 -0 -0 -0 1 1 -0 0 -0 0 0 -1 -1 -0 -1 -2 -2 -1 -1 -1 -0 0 0 0 0 0 0 -0 -0 -0 0 -0 0 0 0 0 0 0 0 0 0 0 nan
nan -0 -0 -0 0 -0 -0 -0 0 -0 -0 -0 0 -0 0 -0 -1 -1 -1 -1 -0 -0 -0 -1 -0 -0 -0 0 0 0 0 0 -0 -0 -0 -0 -0 -0 0 0 0 0 0 0 0 0 0 -0 nan
nan -0 0 -0 -0 -0 -0 0 -0 -0 -1 -0 0 -0 -0 -0 -0 -0 -1 -1 -0 -0 -0 -0 0 0 -0 0 0 0 -0 -0 -0 -0 -0 -0 -0 0 0 0 0 0 0 0 0 0 0 0 nan
nan -0 -0 -0 -0 0 0 0 0 -1 -0 -1 -0 -1 -1 -0 -1 -1 -0 -1 -0 -0 -0 -0 -0 -0 -0 0 0 0 -0 0 -0 -0 0 0 0 1 1 0 0 0 0 0 0 0 0 -0 nan
nan 0 0 -0 -0 0 0 0 0 0 -0 -1 -0 -0 -0 -1 -2 -1 -0 -0 -0 -0 -0 0 -0 -0 0 0 0 0 0 -0 -0 -0 0 0 0 1 0 0 0 0 0 0 0 0 0 0 nan
nan -0 0 -0 -0 0 0 0 -0 0 0 -1 -0 -1 -1 -1 -0 0 -0 -0 -0 -0 -0 -0 -0 -0 0 0 -0 -0 -0 -0 -0 0 0 0 0 0 0 0 0 0 0 0 0 0 0 -0 nan
nan -0 -0 -0 0 -0 0 -0 -0 -0 -0 -1 -1 -2 -1 -1 -0 -1 -0 -0 -1 -0 -0 -0 -0 -0 0 0 0 -0 -0 -0 0 0 0 -0 0 1 0 0 0 0 0 1 0 0 0 -0 nan
nan -0 -0 0 -0 0 0 0 0 -0 0 0 -1 -1 -1 -1 -0 -1 -0 -0 -0 -0 -0 -0 0 0 0 0 0 0 -0 -0 0 0 -0 0 1 1 0 0 0 1 1 0 0 0 -0 -0 nan
nan -0 0 -0 -0 -0 -0 0 -0 0 0 -0 -0 0 -1 -0 -1 -1 -0 -1 -0 0 0 0 0 0 0 1 0 -0 -0 -0 1 1 0 0 1 1 1 1 1 0 0 0 0 0 -0 -0 nan
nan 0 0 0 0 0 0 -0 -0 -0 -0 -0 -0 -1 -1 -1 -1 -0 -0 -0 1 0 0 0 1 1 1 0 0 0 0 1 1 0 0 1 1 1 1 1 0 0 0 0 0 0 0 -0 nan
nan 0 -1 -0 0 0 0 -0 -0 -0 -0 -0 0 -1 -2 -1 -1 -0 0 1 0 0 0 0 0 1 1 0 -0 -0 -0 1 2 0 0 1 1 0 0 0 0 0 0 0 0 0 1 0 nan
nan -0 -0 0 -0 -0 -0 -0 -1 -0 0 0 -0 -2 -1 0 0 0 0 -0 -0 0 0 1 0 0 0 0 0 0 0 2 1 -0 0 0 0 0 0 0 0 0 -0 1 1 1 0 0 nan
nan -0 -0 0 0 -0 -0 -0 -0 0 0 -0 -1 -1 0 0 -0 -1 -0 0 1 0 0 0 0 0 1 1 0 1 0 2 1 -0 -0 0 0 1 0 0 1 -1 0 2 1 0 0 0 nan
nan -0 -0 -0 0 0 -0 -0 -1 -0 0 -0 -0 0 -0 0 0 0 1 1 0 0 1 1 1 1 1 1 1 0 1 2 -1 -1 -0 0 1 0 -0 1 1 1 2 1 0 -0 0 0 nan
nan -0 -0 0 0 0 -0 -0 -0 -0 -0 0 -0 -0 -0 -0 -0 -0 0 0 -0 0 1 0 0 1 1 1 1 1 0 -1 -1 -0 1 1 0 1 2 3 2 2 0 -0 0 0 -0 -0 nan
nan -0 -0 -0 0 0 0 -0 -0 -0 -0 0 0 -0 -0 -0 -0 -0 0 -0 0 1 0 -0 0 1 1 1 1 -0 -0 -0 0 1 1 1 2 3 3 2 1 0 0 0 0 -0 -0 -0 nan
nan nan nan nan nan nan nan nan nan nan nan nan nan nan nan nan nan nan nan nan nan nan nan nan nan nan nan nan nan nan nan nan nan nan nan nan nan nan nan nan nan nan nan nan nan nan nan nan nan
Wind_Speed
3 2 4 4 4 5 4 6 3 4 2 2 2 3 3 5 1 2 4 22 28 33 33 32 29 27 26 24 22 21 20 21 24 25 25 25 25 26 28 29 29 29 27 26 25 25 24 23 22
1 5 5 3 5 2 5 3 4 5 1 4 5 3 6 4 6 1 9 17 29 31 33 33 30 28 27 25 23 21 22 25 25 25 25 26 28 30 31 30 29 29 28 26 24 24 23 21 20
3 6 3 4 3 5 4 4 4 1 6 3 4 9 4 5 7 3 7 19 27 30 31 31 30 28 27 24 22 21 23 25 25 25 27 30 32 32 32 30 28 28 26 25 22 21 20 19 18
4 3 4 4 3 5 5 4 4 1 7 15 8 5 4 4 3 1 18 20 27 28 29 29 30 29 26 23 22 23 24 24 26 27 30 32 33 33 32 30 27 27 26 25 23 21 21 19 16
4 2 3 1 3 4 4 4 4 4 9 8 4 2 3 5 4 10 17 18 24 27 28 31 28 26 26 25 23 24 23 23 25 29 31 32 32 31 31 28 25 25 23 22 20 19 19 18 15
2 2 3 1 5 4 4 4 2 4 7 7 7 4 1 5 12 12 15 19 22 24 30 32 31 30 26 22 23 23 23 23 25 28 30 31 30 29 27 26 24 22 20 17 16 17 17 16 15
5 4 4 3 4 5 4 3 0 1 4 4 11 4 5 11 11 12 13 18 19 18 29 31 38 33 29 25 24 23 22 22 25 27 28 28 27 26 24 22 20 18 15 13 12 13 13 13 13
3 4 2 2 3 5 1 3 3 5 3 7 7 7 5 14 12 13 14 15 10 29 36 30 39 29 25 23 23 22 22 22 25 26 26 25 25 23 20 18 16 14 12 11 9 9 12 11 11
3 4 1 4 3 5 3 2 1 1 6 4 1 9 14 16 14 15 15 15 15 16 30 36 41 33 21 21 18 20 19 21 23 25 24 23 21 19 17 14 12 11 9 7 6 7 9 12 13
3 3 7 6 5 5 4 5 7 4 6 5 10 12 18 16 18 18 18 24 27 31 36 38 42 43 32 27 19 16 17 22 23 24 22 21 19 17 15 12 10 7 6 5 3 4 7 11 13
5 5 6 8 16 2 7 3 4 10 2 11 19 25 20 18 19 21 22 25 29 30 33 42 40 44 37 20 19 21 20 23 24 22 20 20 18 16 13 10 7 5 4 1 1 2 6 11 14
2 12 7 9 6 5 7 7 3 5 4 7 21 24 25 20 21 21 29 31 33 38 41 36 39 38 27 21 19 23 23 23 23 22 19 18 15 14 11 9 8 5 3 2 2 3 7 11 12
3 5 2 2 8 8 10 6 5 1 6 14 21 21 23 19 17 19 21 25 25 27 30 40 37 30 24 25 24 24 25 23 22 21 19 15 13 12 10 9 8 8 7 5 4 6 7 10 10
1 4 5 5 8 7 7 4 2 4 16 19 18 18 20 20 23 22 23 29 25 35 37 30 25 21 20 22 25 25 25 24 22 20 17 14 13 10 9 10 11 9 8 9 7 6 8 9 11
2 2 4 0 4 3 14 1 2 15 19 21 16 16 20 21 24 25 27 30 41 36 30 26 22 23 24 25 25 26 26 24 21 18 16 13 12 11 11 12 14 13 12 10 9 8 10 10 13
3 3 0 4 2 1 2 3 6 21 22 22 19 22 20 23 27 26 27 35 37 31 27 26 26 24 23 24 26 27 27 23 19 16 13 12 11 10 11 14 15 13 11 11 10 10 10 12 14
5 1 1 4 5 2 2 3 5 22 18 20 23 24 22 26 29 27 27 33 33 30 26 25 24 23 23 24 27 27 26 22 18 16 14 11 11 13 16 14 15 14 14 11 11 10 11 13 12
3 2 3 5 3 5 2 6 6 21 19 21 25 26 25 26 30 28 26 28 29 29 28 25 21 21 24 25 26 26 26 24 20 18 15 14 15 17 17 17 16 15 14 10 9 11 13 11 9
2 3 5 3 5 4 6 6 8 12 13 17 23 27 28 28 25 26 27 27 28 27 28 27 26 23 25 29 30 30 28 25 25 19 18 18 15 16 18 17 16 16 12 10 12 12 9 8 11
2 3 4 4 3 3 4 4 4 10 16 23 29 30 29 28 27 28 28 30 31 31 30 29 27 26 27 28 29 29 27 26 24 21 21 19 16 16 16 16 16 14 13 11 10 8 8 10 12
2 3 2 2 5 0 1 5 5 5 14 19 25 33 32 33 31 30 30 31 33 35 34 32 31 30 30 30 30 31 29 31 28 24 25 22 18 17 16 17 16 15 12 10 9 9 11 11 14
2 3 3 4 5 3 2 4 4 4 8 9 24 32 35 36 35 33 34 34 36 35 33 31 29 30 31 32 33 34 32 34 29 23 23 19 19 18 19 20 17 14 11 11 9 10 12 14 17
6 1 1 1 3 1 1 3 7 2 6 12 19 32 38 39 37 36 38 38 38 35 34 31 31 34 34 35 35 35 33 33 27 23 20 20 22 22 21 19 16 14 13 12 12 10 13 20 19
2 3 5 4 3 1 3 5 5 4 7 5 13 26 37 41 42 40 39 38 37 38 37 36 35 35 35 37 37 36 33 32 29 25 22 22 23 23 22 20 19 18 18 18 18 16 26 16 17
2 5 3 4 3 4 2 2 9 5 6 7 10 30 41 45 43 43 42 42 41 40 40 39 38 38 37 36 38 38 37 33 27 24 21 22 24 25 24 22 22 24 23 24 22 22 18 22 24
3 6 5 2 2 3 1 4 5 3 5 12 15 17 29 37 41 44 44 43 42 42 41 38 38 39 37 38 35 39 41 35 29 26 22 20 23 27 27 26 30 29 25 28 22 25 18 15 17
3 2 4 6 3 2 3 6 10 4 3 7 5 7 16 26 36 41 43 43 42 42 41 37 34 40 40 39 37 39 36 36 30 25 24 24 27 30 30 28 33 30 27 22 21 13 12 13 14
3 6 3 3 2 3 4 4 5 7 4 3 4 2 5 12 21 30 36 40 40 39 39 34 34 31 34 39 39 40 34 35 28 25 26 28 28 33 35 29 29 24 17 13 10 9 11 14 16
2 1 4 5 4 4 1 5 7 6 4 5 5 2 3 8 13 17 22 26 30 32 32 30 34 33 31 31 34 33 31 28 25 24 26 27 28 32 30 25 18 16 11 8 8 10 15 17 15
4 7 6 4 4 1 3 6 4 7 6 7 7 4 2 5 9 11 12 13 15 19 25 29 33 32 28 28 25 25 25 25 25 28 26 27 27 26 26 17 14 10 10 8 8 19 13 15 15
Wind_Direction
243 146 130 119 64 68 278 260 288 272 242 10 87 53 105 64 132 228 306 180 178 169 169 172 170 169 167 163 159 154 148 146 142 138 135 133 130 126 122 117 114 109 106 100 97 101 106 102 93
166 130 108 96 90 77 263 271 277 286 322 71 83 67 38 64 12 341 140 170 172 169 172 172 171 169 168 164 156 150 147 146 141 137 135 133 128 125 120 117 115 111 107 104 104 102 100 98 95
159 134 103 93 119 197 223 228 330 271 137 40 66 54 46 351 4 138 152 161 170 171 175 172 172 171 167 159 152 148 146 144 139 137 136 132 127 123 119 119 118 115 111 108 103 98 96 95 93
147 124 70 99 225 253 217 304 316 95 51 33 22 61 82 356 321 84 151 168 179 176 177 175 175 169 160 152 146 145 145 142 140 138 135 132 127 124 122 122 118 112 106 103 99 96 95 94 94
151 127 69 61 251 252 238 259 216 143 131 68 86 102 63 42 76 133 160 175 181 181 185 178 171 161 154 148 145 143 142 145 141 139 137 133 131 130 126 122 117 112 106 102 99 94 90 85 74
93 89 65 262 259 271 250 219 239 3 142 153 115 81 356 90 144 162 175 180 181 188 185 177 164 157 140 136 143 145 150 147 141 140 139 138 137 134 129 126 121 110 105 101 101 91 84 72 63
133 91 197 206 265 292 233 170 163 170 87 44 132 107 161 145 155 167 181 187 189 201 172 154 152 144 139 141 145 148 146 142 142 144 143 141 138 134 132 127 121 118 113 116 103 86 70 66 58
185 94 123 269 258 284 325 123 115 100 134 129 146 164 176 162 164 182 187 190 206 171 173 161 136 126 135 140 145 139 135 146 148 147 145 141 139 137 132 129 126 123 125 108 86 69 57 53 42
153 63 220 239 200 253 143 102 118 65 114 69 68 161 167 166 174 194 192 177 163 129 127 128 117 126 129 134 132 136 138 147 153 149 148 145 141 138 139 136 137 138 121 108 90 60 36 27 20
94 130 227 219 207 232 127 176 178 141 110 69 95 137 155 164 174 166 159 154 152 140 130 133 136 138 142 136 136 145 157 161 158 153 152 150 148 147 151 150 146 137 129 118 96 57 25 13 4
167 192 227 258 241 249 144 185 182 132 218 191 167 157 163 164 161 153 143 152 155 148 148 140 140 138 147 147 165 171 175 164 160 160 159 161 159 161 159 148 156 163 156 132 96 17 4 359 349
219 239 225 276 226 137 166 141 95 190 263 203 165 160 156 158 158 162 139 130 134 136 136 143 143 135 146 174 179 188 174 168 166 166 161 165 165 164 156 168 180 187 206 237 289 318 341 340 337
189 270 300 173 138 134 132 125 132 353 147 163 152 160 165 173 178 186 183 170 150 157 159 154 161 153 164 178 188 185 177 174 173 176 177 175 173 177 180 193 207 210 220 233 264 298 320 321 323
185 6 39 73 136 153 130 134 164 173 154 147 154 167 176 179 180 178 175 170 163 149 156 158 162 163 173 182 187 187 184 182 186 187 186 187 188 200 214 219 222 225 231 239 249 273 299 307 319
227 31 21 170 178 227 135 81 200 159 162 149 169 185 188 183 183 176 168 169 162 163 167 173 175 182 188 195 191 191 190 191 197 196 199 200 206 212 223 231 231 229 223 234 250 281 293 312 317
85 37 5 252 130 253 172 230 175 169 166 155 179 192 190 183 186 179 169 171 175 179 182 186 193 194 194 197 197 196 198 202 206 206 209 213 216 226 236 235 233 227 238 238 261 278 291 307 314
21 307 281 304 164 144 227 269 195 181 176 159 180 191 192 188 192 193 185 184 184 190 193 198 200 199 197 201 201 202 205 213 216 214 221 221 223 238 233 232 241 246 240 246 263 273 290 306 311
169 280 304 247 282 196 152 270 194 188 184 171 183 191 196 201 202 203 205 203 202 203 204 204 203 202 201 203 203 206 212 219 222 219 222 225 233 237 233 230 237 240 240 245 257 277 295 308 329
192 213 217 274 267 226 238 214 197 189 193 177 191 197 204 212 211 213 213 215 214 211 209 209 209 205 205 205 205 212 218 227 222 221 224 224 241 244 237 235 238 235 234 242 261 277 299 324 344
231 194 240 267 281 127 340 265 187 175 212 197 195 202 210 216 217 216 212 214 217 218 216 215 217 216 215 213 215 221 232 235 232 224 227 234 247 243 232 231 228 230 234 247 264 281 308 328 336
271 202 235 211 347 93 352 306 191 213 203 210 213 213 210 213 215 217 217 216 216 219 217 217 218 218 220 222 223 229 235 237 235 221 227 239 240 233 223 222 225 227 233 249 268 294 319 323 327
290 217 289 14 49 268 84 285 277 229 213 209 215 214 216 217 220 217 219 220 221 220 221 223 223 223 225 227 228 230 238 239 241 236 240 242 235 223 218 223 220 225 239 256 278 303 317 325 329
223 179 208 162 154 51 301 100 274 126 243 233 224 217 219 221 221 223 224 224 225 225 225 227 229 228 229 231 232 234 239 243 244 240 243 247 227 217 217 217 221 233 249 264 272 276 311 309 311
205 150 55 48 88 101 238 140 282 212 216 243 225 223 223 223 225 229 233 234 232 230 229 229 232 235 236 237 237 238 246 253 246 236 244 240 224 222 222 226 232 245 256 257 258 273 297 306 311
109 65 347 355 16 220 33 57 238 290 282 247 222 219 226 227 227 228 230 232 233 232 232 231 233 236 239 236 239 240 243 253 246 239 246 237 230 227 228 233 242 244 242 263 263 289 293 295 296
170 138 154 253 195 266 316 232 257 210 299 309 263 248 233 228 230 231 232 232 233 234 235 234 235 237 243 240 240 240 242 248 245 241 236 241 242 233 229 235 245 245 273 257 283 302 302 298 290
164 139 167 104 12 56 256 293 306 349 317 349 10 197 218 230 231 232 233 234 233 236 237 236 240 242 244 246 244 246 244 245 252 235 235 238 241 236 242 260 256 251 255 287 298 293 290 300 307
144 158 81 24 171 255 298 288 243 319 330 301 316 296 224 227 230 233 236 236 236 240 241 238 238 248 253 248 247 248 251 252 257 245 246 244 250 259 251 247 243 244 285 293 276 297 313 318 305
112 155 70 119 138 179 233 262 215 241 271 323 331 301 204 224 230 233 238 241 243 244 246 245 241 246 249 250 249 250 255 259 253 260 258 258 252 247 243 235 242 271 265 255 298 321 307 295 294
181 194 154 136 209 157 168 270 257 248 266 263 290 297 261 201 194 198 203 215 228 237 242 244 243 247 252 253 249 250 251 254 252 259 248 243 247 238 230 249 258 244 241 263 287 293 297 297 295
Height
1505 1503 1505 1505 1519 1525 1527 1516 1503 1501 1499 1497 1496 1498 1498 1500 1501 1509 1500 1502 1505 1509 1514 1518 1523 1526 1529 1532 1534 1536 1539 1542 1544 1546 1549 1551 1552 1554 1555 1556 1555 1556 1560 1563 1564 1566 1567 1568 1568
1505 1504 1504 1506 1526 1534 1524 1508 1505 1501 1499 1496 1494 1498 1501 1502 1503 1502 1502 1505 1508 1511 1514 1518 1522 1526 1530 1533 1535 1539 1541 1544 1546 1549 1552 1553 1554 1556 1556 1558 1560 1560 1562 1563 1567 1567 1570 1569 1569
1506 1505 1504 1513 1528 1528 1522 1503 1501 1499 1497 1496 1496 1499 1503 1506 1505 1503 1505 1507 1510 1512 1515 1518 1521 1526 1529 1533 1537 1541 1544 1545 1548 1551 1554 1556 1556 1559 1559 1560 1563 1563 1564 1567 1570 1569 1571 1571 1571
1506 1506 1508 1516 1520 1513 1508 1500 1500 1500 1501 1500 1501 1504 1507 1507 1505 1505 1506 1509 1511 1514 1516 1520 1521 1525 1529 1534 1538 1542 1546 1549 1550 1552 1555 1558 1560 1562 1563 1563 1565 1566 1568 1570 1572 1573 1572 1572 1573
1506 1504 1514 1518 1513 1504 1499 1497 1498 1497 1499 1500 1501 1507 1508 1507 1506 1506 1508 1510 1512 1514 1517 1519 1522 1528 1530 1534 1539 1542 1547 1553 1554 1555 1557 1561 1562 1564 1565 1567 1568 1570 1568 1571 1574 1573 1574 1574 1575
1504 1505 1520 1522 1513 1500 1496 1495 1499 1497 1496 1497 1499 1507 1511 1509 1506 1506 1508 1510 1512 1515 1516 1516 1519 1525 1531 1535 1541 1543 1548 1554 1556 1560 1561 1562 1565 1566 1567 1570 1572 1571 1573 1573 1575 1574 1575 1575 1575
1503 1510 1516 1513 1509 1501 1494 1495 1498 1496 1497 1500 1502 1507 1510 1509 1508 1507 1509 1511 1513 1516 1514 1513 1505 1523 1529 1535 1541 1545 1551 1556 1558 1562 1564 1566 1567 1568 1570 1572 1574 1574 1574 1574 1575 1576 1577 1576 1577
1501 1505 1511 1510 1508 1504 1494 1496 1497 1497 1498 1499 1500 1504 1507 1507 1507 1509 1510 1511 1513 1512 1508 1516 1516 1527 1531 1538 1542 1546 1548 1557 1560 1563 1567 1569 1570 1570 1573 1574 1575 1575 1576 1576 1577 1579 1577 1577 1578
1500 1513 1518 1507 1502 1497 1495 1495 1497 1497 1498 1499 1500 1501 1503 1505 1507 1508 1510 1511 1514 1514 1505 1508 1505 1529 1539 1543 1546 1547 1550 1557 1561 1564 1569 1571 1572 1572 1573 1574 1575 1576 1577 1577 1578 1578 1578 1577 1577
1502 1513 1506 1496 1493 1493 1494 1494 1496 1499 1501 1503 1503 1504 1505 1506 1508 1509 1510 1511 1512 1514 1519 1519 1526 1527 1536 1543 1548 1551 1553 1556 1562 1566 1570 1571 1573 1573 1573 1575 1576 1577 1577 1577 1579 1577 1579 1578 1578
1500 1506 1496 1492 1489 1490 1492 1495 1496 1498 1500 1499 1501 1503 1506 1508 1509 1512 1513 1514 1515 1516 1519 1525 1527 1530 1538 1547 1552 1554 1555 1558 1563 1567 1569 1572 1572 1572 1574 1574 1577 1579 1578 1579 1578 1578 1578 1577 1578
1499 1492 1493 1488 1490 1490 1492 1493 1496 1496 1496 1495 1500 1503 1506 1509 1512 1515 1517 1519 1519 1520 1524 1528 1531 1533 1539 1547 1552 1554 1556 1560 1563 1568 1570 1571 1572 1572 1573 1575 1576 1576 1578 1578 1578 1579 1577 1577 1578
1495 1490 1488 1491 1489 1490 1491 1494 1495 1497 1495 1497 1500 1505 1507 1509 1513 1515 1518 1520 1522 1524 1525 1525 1530 1534 1539 1546 1551 1555 1557 1561 1563 1568 1570 1571 1569 1572 1573 1576 1577 1576 1577 1578 1577 1578 1576 1578 1578
1492 1490 1488 1488 1489 1490 1491 1494 1495 1497 1497 1500 1503 1505 1508 1510 1511 1514 1517 1519 1523 1526 1529 1532 1535 1538 1543 1546 1550 1554 1557 1560 1564 1565 1568 1570 1569 1572 1573 1575 1576 1575 1576 1578 1577 1576 1577 1577 1576
1490 1491 1490 1490 1491 1490 1491 1497 1495 1494 1499 1500 1505 1507 1508 1510 1512 1514 1516 1520 1522 1526 1530 1533 1536 1539 1543 1548 1550 1553 1557 1559 1562 1564 1565 1568 1569 1571 1573 1573 1574 1574 1575 1576 1576 1575 1577 1574 1574
1492 1495 1500 1490 1491 1491 1493 1499 1493 1494 1497 1497 1503 1506 1508 1511 1513 1517 1518 1522 1525 1528 1530 1534 1537 1540 1543 1547 1550 1553 1556 1559 1560 1562 1564 1566 1567 1569 1570 1571 1573 1573 1574 1573 1575 1575 1576 1573 1573
1501 1508 1499 1493 1489 1491 1492 1493 1492 1495 1497 1500 1502 1504 1507 1510 1513 1517 1519 1522 1523 1527 1530 1533 1535 1538 1541 1546 1549 1551 1554 1557 1558 1560 1562 1564 1566 1567 1569 1569 1572 1571 1573 1569 1572 1575 1573 1571 1570
1504 1504 1501 1500 1489 1488 1493 1493 1492 1493 1497 1498 1500 1503 1506 1508 1509 1514 1518 1521 1524 1527 1530 1532 1534 1537 1541 1544 1546 1550 1552 1553 1556 1558 1560 1562 1564 1564 1564 1566 1568 1570 1571 1568 1570 1572 1572 1570 1568
1496 1498 1499 1494 1488 1491 1490 1491 1492 1495 1497 1499 1500 1501 1504 1504 1509 1513 1517 1519 1522 1524 1527 1529 1532 1535 1538 1540 1542 1546 1548 1550 1553 1555 1558 1560 1561 1561 1561 1563 1565 1568 1568 1567 1569 1570 1569 1566 1563
1493 1498 1498 1490 1491 1488 1492 1493 1488 1491 1491 1492 1495 1496 1498 1502 1506 1509 1513 1515 1517 1520 1523 1526 1529 1533 1535 1538 1540 1544 1546 1548 1550 1552 1554 1556 1557 1558 1559 1561 1564 1564 1565 1565 1567 1566 1565 1562 1561
1492 1495 1492 1492 1490 1488 1489 1493 1488 1487 1488 1492 1493 1492 1494 1495 1500 1504 1506 1510 1514 1516 1519 1522 1525 1529 1532 1534 1537 1540 1542 1544 1545 1547 1551 1553 1553 1554 1556 1559 1559 1561 1562 1562 1563 1562 1561 1559 1559
1497 1488 1488 1490 1497 1510 1493 1512 1490 1487 1486 1486 1486 1489 1489 1492 1495 1499 1503 1505 1507 1511 1516 1520 1524 1526 1529 1532 1534 1534 1537 1539 1541 1544 1549 1549 1549 1550 1554 1555 1556 1557 1558 1558 1558 1558 1559 1558 1556
1493 1486 1488 1490 1500 1501 1500 1510 1492 1486 1487 1482 1478 1479 1483 1486 1489 1493 1496 1498 1504 1510 1513 1516 1519 1522 1525 1528 1530 1532 1533 1536 1539 1543 1544 1545 1547 1549 1550 1552 1552 1553 1553 1553 1553 1552 1554 1553 1554
1482 1487 1494 1499 1504 1514 1498 1506 1499 1488 1477 1471 1471 1474 1476 1480 1484 1488 1492 1497 1501 1506 1509 1513 1515 1518 1521 1523 1526 1529 1531 1532 1535 1538 1540 1541 1543 1545 1547 1547 1547 1548 1548 1548 1548 1547 1548 1550 1549
1486 1495 1517 1523 1524 1517 1499 1505 1493 1475 1471 1468 1466 1465 1468 1472 1477 1482 1486 1489 1494 1499 1503 1508 1512 1514 1517 1520 1523 1525 1527 1528 1530 1533 1535 1537 1538 1540 1542 1544 1544 1542 1541 1543 1545 1544 1545 1546 1545
1485 1493 1517 1512 1528 1513 1499 1505 1484 1468 1467 1463 1460 1462 1465 1468 1471 1476 1479 1483 1488 1493 1497 1503 1507 1510 1513 1515 1518 1520 1522 1523 1526 1527 1530 1532 1534 1535 1535 1536 1539 1537 1538 1537 1540 1541 1541 1541 1540
1487 1495 1492 1514 1522 1529 1507 1492 1475 1467 1464 1464 1462 1461 1462 1463 1466 1470 1474 1479 1484 1488 1492 1498 1503 1506 1509 1511 1514 1515 1517 1519 1520 1522 1524 1525 1527 1528 1528 1530 1533 1532 1533 1537 1537 1536 1537 1536 1535
1479 1484 1500 1511 1512 1512 1507 1500 1494 1473 1469 1467 1464 1462 1464 1464 1465 1469 1472 1476 1480 1485 1489 1496 1499 1501 1504 1506 1508 1511 1512 1514 1516 1517 1518 1519 1521 1521 1522 1525 1526 1529 1533 1533 1533 1533 1533 1532 1531
1485 1488 1493 1498 1512 1515 1523 1504 1476 1470 1466 1465 1463 1463 1464 1464 1465 1467 1470 1474 1478 1483 1487 1491 1494 1496 1499 1501 1504 1506 1508 1510 1511 1513 1514 1515 1516 1518 1521 1522 1525 1526 1528 1528 1529 1529 1528 1526 1525
1474 1480 1485 1507 1503 1514 1521 1502 1466 1464 1464 1464 1462 1462 1463 1465 1466 1468 1470 1473 1476 1480 1483 1485 1489 1493 1496 1498 1500 1502 1504 1506 1507 1508 1508 1511 1515 1516 1518 1521 1523 1523 1524 1524 1526 1523 1522 1521 1521